Tracking 18840 objects as of 19-November-2017
HD Live streaming from Space Station
objects crossing your sky now

COSMOS 909

Track COSMOS 909 now!
10-day predictions
COSMOS 909 is classified as:


NORAD ID: 10010
Int'l Code: 1977-036A
Perigee: 993.6 km
Apogee: 2,116.4 km
Inclination: 65.9 °
Period: 117.0 minutes
Semi major axis: 7925 km
RCS: 1.4527 m2 (large)
Launch date: May 19, 1977
Source: Commonwealth of Independent States (former USSR) (CIS)
Launch site: PLESETSK MISSILE AND SPACE COMPLEX (PKMTR)
aabbcc
Your satellite tracking list
Your tracking list is empty




NASA's NSSDC Master Catalog

Two Line Element Set (TLE):
1 10010U 77036A   17322.77762935 -.00000076  00000-0 -80217-4 0  9993
2 10010  65.8626 101.3169 0708286 194.3801 163.6061 12.30334950819792
Source of the keplerian elements: AFSPC